Weather History for Sarasota, FL

Change the Weather History Date:

Monday, March 18, 2013

  Actual Average Record
Temperature  
Mean Temperature 68 °F 67 °F  
Max Temperature 77 °F 76 °F 88 °F (2012)
Min Temperature 59 °F 57 °F 33 °F (1916)
Degree Days  
Heating Degree Days 0 1  
Month to date heating degree days 99 37  
Since 1 July heating degree days 344 455  
Cooling Degree Days 3 3  
Month to date cooling degree days 9 54  
Year to date cooling degree days 211 158  
Growing Degree Days 17 (Base 50)    
Moisture  
Dew Point 63 °F    
Average Humidity 86    
Maximum Humidity 97    
Minimum Humidity 64    
Precipitation  
Precipitation 0.05 in 0.12 in 3.49 in (1960)
Month to date precipitation 0.51 2.30  
Year to date precipitation 1.65 7.49  
Sea Level Pressure  
Sea Level Pressure 29.98 in    
Wind  
Wind Speed 10 mph (South)    
Max Wind Speed 26 mph    
Max Gust Speed 31 mph    
Visibility 10 miles    
Events Rain    
T = Trace of Precipitation, MM = Missing Value Source: NWS Daily Summary

Daily Weather History Graph

Daily Weather History Graph

Search for Another Location

Airport:

Trip Planner

Search our weather history database for the weather conditions in past years. The results will help you decide how hot, cold, wet, or windy it might be!

Date:

Astronomy

Mar. 18, 2013 Rise Set
Actual Time 7:36 AM EDT 7:40 PM EDT
Civil Twilight 7:12 AM EDT 8:03 PM EDT
Nautical Twilight 6:45 AM EDT 8:31 PM EDT
Astronomical Twilight 6:18 AM EDT 8:58 PM EDT
Moon 12:04 PM EDT (3/18) 1:10 AM EDT (3/18)
Length of Visible Light 12h 51m
Length of Day
12h 04m
Waxing Crescent, 40% of the Moon is Illuminated
Mar 18
Waxing Crescent
Mar 19
First Quarter
Mar 27
Full
Apr 3
Last Quarter
Apr 10
New

Hourly Weather History & Observations

Time (EDT) Temp. Dew Point Humidity Pressure Visibility Wind Dir Wind Speed Gust Speed Precip Events Conditions
12:53 AM 66.0 °F 57.0 °F 73% 30.04 in 10.0 mi South 6.9 mph - N/A   Overcast
1:53 AM 64.0 °F 59.0 °F 84% 29.99 in 10.0 mi East 4.6 mph - 0.00 in Rain Light Rain
2:53 AM 63.0 °F 57.9 °F 84% 30.01 in 10.0 mi Calm Calm - 0.00 in   Clear
3:53 AM 61.0 °F 59.0 °F 93% 30.00 in 10.0 mi Calm Calm - N/A   Overcast
4:53 AM 62.1 °F 59.0 °F 90% 30.00 in 10.0 mi East 4.6 mph - N/A   Mostly Cloudy
5:53 AM 60.1 °F 57.9 °F 93% 30.00 in 10.0 mi East 5.8 mph - N/A   Clear
6:53 AM 60.1 °F 57.9 °F 93% 30.01 in 10.0 mi East 4.6 mph - N/A   Clear
7:53 AM 59.0 °F 57.0 °F 93% 30.02 in 10.0 mi East 4.6 mph - N/A   Scattered Clouds
8:53 AM 64.0 °F 60.1 °F 87% 30.02 in 10.0 mi SE 6.9 mph - N/A   Clear
9:53 AM 72.0 °F 64.0 °F 76% 30.01 in 10.0 mi SSE 15.0 mph - N/A   Clear
10:53 AM 75.0 °F 63.0 °F 66% 30.02 in 10.0 mi South 17.3 mph - N/A   Clear
11:53 AM 75.9 °F 64.0 °F 67% 30.01 in 10.0 mi South 12.7 mph - N/A   Clear
12:53 PM 73.9 °F 64.9 °F 73% 30.02 in 10.0 mi South 17.3 mph 21.9 mph N/A   Clear
12:59 PM 73.4 °F 64.4 °F 73% 30.02 in 10.0 mi South 16.1 mph - N/A   Overcast
1:53 PM 72.0 °F 64.9 °F 78% 30.01 in 10.0 mi South 16.1 mph 23.0 mph N/A   Scattered Clouds
2:53 PM 70.0 °F 66.9 °F 90% 29.97 in 8.0 mi South 18.4 mph 25.3 mph 0.00 in Rain Light Rain
3:04 PM 69.8 °F 66.2 °F 88% 29.97 in 9.0 mi South 16.1 mph - 0.01 in Rain Light Rain
3:53 PM 69.1 °F 66.9 °F 93% 29.93 in 8.0 mi South 20.7 mph 28.8 mph 0.03 in Rain Light Rain
4:00 PM 69.8 °F 66.2 °F 88% 29.92 in 8.0 mi South 23.0 mph 31.1 mph 0.00 in Rain Light Rain
4:53 PM 69.1 °F 66.9 °F 93% 29.92 in 10.0 mi South 12.7 mph - 0.01 in Rain Light Rain
5:53 PM 69.1 °F 66.0 °F 90% 29.93 in 10.0 mi South 8.1 mph - 0.00 in   Partly Cloudy
6:53 PM 66.9 °F 64.9 °F 93% 29.94 in 10.0 mi SW 6.9 mph - N/A   Clear
7:53 PM 66.0 °F 64.0 °F 93% 29.96 in 10.0 mi SSW 5.8 mph - N/A   Clear
8:53 PM 66.0 °F 64.0 °F 93% 29.98 in 10.0 mi SW 4.6 mph - N/A   Clear
9:19 PM 66.2 °F 64.4 °F 94% 29.99 in 10.0 mi SW 4.6 mph - N/A   Mostly Cloudy
9:53 PM 66.9 °F 64.9 °F 93% 29.98 in 10.0 mi SSW 10.4 mph - 0.00 in Rain Light Rain
10:53 PM 66.9 °F 64.9 °F 93% 29.91 in 10.0 mi South 18.4 mph - 0.01 in   Clear